Location: Melque
(41.0517°N, 4.4694°W)
Time: 13:07:50
(UTC+00:00)

SKYMED 2 - Pass Details

Date: 18 March 2026
Orbit: 622 x 624 km, 97.9° (Epoch: 14 April)

Event Time Altitude Azimuth Distance (km) Brightness Sun altitude
Rises 18:51:04 0° 6° (N) 2,911 7.0 -5.2°
Reaches altitude 10° 18:53:20 10° 360° (N) 2,000 6.2 -5.6°
Maximum altitude 18:57:28 45° 288° (WNW) 850 4.9 -6.4°
Drops below altitude 10° 19:01:36 10° 216° (SW) 1,985 6.6 -7.2°
Sets 19:03:50 0° 210° (SSW) 2,886 7.3 -7.6°
